Regional Weather Roundup
Issued by NWS Charleston, WV

Home | Current Version | Previous Version | Graphics & Text | Print | Product List | Glossary On
Versions: 1 2 3 4 5 6 7 8 9 10 11 12 13 14 15 16 17 18 19 20 21 22 23 24 25 26 27 28 29 30 31 32 33 34 35 36 37 38 39 40 41 42 43 44 45 46 47 48 49 50
000
ASUS41 KRLX 050710
RWRRLX
West Virginia Regional Weather Roundup
National Weather Service Charleston WV
300 AM EDT SUN JUL 05 2015

Note: "fair" indicates few or no clouds below 12,000 feet with no
significant weather and/or obstructions to visibility.

WVZ003-050800-
Northern Panhandle of West Virginia

CITY           SKY/WX    TMP DP  RH WIND       PRES   REMARKS
WHEELING       PTCLDY    62  54  74 NE5       30.10R
$$

WVZ009-050800-
Northwest West Virginia

CITY           SKY/WX    TMP DP  RH WIND       PRES   REMARKS
PARKERSBURG    MOCLDY    60  58  92 CALM      30.09F FOG
$$

WVZ006-050800-
Western West Virginia

CITY           SKY/WX    TMP DP  RH WIND       PRES   REMARKS
HUNTINGTON     FOG       64  64 100 CALM      30.06S VSB 1/4
$$

WVZ015-050800-
West Central West Virginia

CITY           SKY/WX    TMP DP  RH WIND       PRES   REMARKS
CHARLESTON     FOG       66  65  96 CALM      30.07S VSB 1/2
$$

WVZ022-031-050800-
North Central West Virginia

CITY           SKY/WX    TMP DP  RH WIND       PRES   REMARKS
CLARKSBURG     FOG       60  59  96 CALM      30.09S VSB 1/4
MORGANTOWN     PTCLDY    64  58  80 CALM      30.10R HAZE
$$

WVZ025-035-042-045-050800-
Southern West Virginia

CITY           SKY/WX    TMP DP  RH WIND       PRES   REMARKS
BECKLEY        MOCLDY    62  60  93 CALM      30.14F FOG
LOGAN          FOG       66  66 100 CALM      30.05F VSB<1/4
BLUEFIELD      CLOUDY    67  62  84 CALM      30.16S
LEWISBURG      FOG       61  59  93 CALM      30.14S VSB 1/4
$$

WVZ047-050800-
Northern Mountains of West Virginia

CITY           SKY/WX    TMP DP  RH WIND       PRES   REMARKS
ELKINS         FOG       60  59  96 CALM      30.14R VSB 1/4
$$

WVZ052-050800-
Eastern Panhandle of West Virginia

CITY           SKY/WX    TMP DP  RH WIND       PRES   REMARKS
MARTINSBURG    PTCLDY    65  63  93 CALM      30.08R FOG
PETERSBURG       N/A     60  58  92 CALM      30.11R FOG
$$


USA.gov is the U.S. government's official web portal to all federal, state and local government web resources and services.